Date,TemperatureHighF,TemperatureAvgF,TemperatureLowF,DewpointHighF,DewpointAvgF,DewpointLowF,HumidityHigh,HumidityAvg,HumidityLow,PressureMaxIn,PressureMinIn,WindSpeedMaxMPH,WindSpeedAvgMPH,GustSpeedMaxMPH,PrecipitationSumIn
2013-6-1,67.6,57.6,49.7,61.2,53.5,42.5,94,86,75,29.83,29.39,12,2,18,0.06
2013-6-2,67.0,55.4,45.1,49.8,44.1,40.5,92,68,43,29.96,29.83,10,1,15,0.00
2013-6-3,74.2,59.1,44.2,49.2,45.2,40.5,94,63,35,29.94,29.84,11,2,12,0.00
2013-6-4,63.1,56.6,51.9,54.1,49.2,42.7,95,77,58,29.98,29.87,24,8,26,0.22
2013-6-5,55.8,52.8,47.3,54.4,51.4,46.1,96,95,94,29.94,29.84,14,5,15,0.64
2013-6-6,54.8,50.7,46.5,51.6,48.6,45.4,96,93,87,29.93,29.86,8,1,11,0.01
2013-6-7,65.5,55.2,48.8,55.5,50.8,46.5,94,85,65,29.94,29.79,1,0,5,0.00
2013-6-8,69.5,62.5,53.4,58.0,55.3,51.5,94,78,60,29.79,29.75,16,5,19,0.00
2013-6-9,60.4,57.6,55.9,59.0,55.3,53.2,95,92,81,29.78,29.67,22,7,24,0.08
2013-6-10,69.3,61.5,55.2,63.8,58.9,54.1,96,92,78,29.73,29.67,6,0,6,0.00
2013-6-11,82.4,67.3,54.9,69.1,61.7,53.8,96,83,61,29.74,29.67,5,0,7,0.00
2013-6-12,74.0,64.9,59.0,67.7,57.5,50.7,94,78,58,29.80,29.63,13,0,14,0.03
2013-6-13,78.7,66.5,55.0,60.5,54.9,49.9,84,67,50,29.95,29.80,11,2,14,0.00
2013-6-14,74.2,66.4,53.5,63.1,58.0,50.4,91,75,63,29.95,29.72,21,6,24,0.00
2013-6-15,78.9,69.9,62.9,70.9,64.1,53.7,93,82,65,29.74,29.67,14,1,15,0.00
2013-6-16,84.5,71.2,56.8,59.8,55.2,51.5,84,60,35,29.75,29.64,16,1,18,0.00
2013-6-17,75.8,65.4,53.3,63.5,57.1,45.6,92,75,62,29.91,29.67,9,1,12,0.04
2013-6-18,76.1,61.2,46.1,59.4,52.1,43.6,92,73,53,29.99,29.88,10,1,11,0.00
2013-6-19,83.8,71.2,56.9,66.7,61.1,52.8,88,72,49,29.92,29.78,11,2,12,0.00
2013-6-20,82.0,70.5,67.0,70.9,64.6,62.0,92,82,64,29.84,29.72,16,2,24,0.00
2013-6-21,80.0,70.1,62.8,68.9,65.3,61.3,95,86,65,29.93,29.53,25,4,25,0.93
2013-6-22,74.7,67.9,61.6,70.3,65.4,59.4,95,92,82,29.84,29.65,25,3,26,0.08
2013-6-23,80.3,70.4,59.6,70.1,65.3,57.9,96,85,63,29.73,29.51,24,3,24,0.75
2013-6-24,83.8,73.5,62.7,73.3,67.5,61.2,95,83,55,29.74,29.62,8,0,10,0.00
2013-6-25,86.2,74.7,65.0,72.3,68.1,63.2,95,81,57,29.67,29.55,12,4,13,0.00
2013-6-26,88.7,77.6,71.5,76.0,71.3,66.0,95,82,57,29.63,29.48,9,2,13,0.00
2013-6-27,86.3,74.8,64.6,68.8,64.7,59.5,92,73,47,29.63,29.59,16,1,21,0.00
2013-6-28,76.8,67.4,64.0,67.4,62.8,59.8,95,85,67,29.65,29.58,14,2,16,0.53
2013-6-29,75.8,66.7,59.3,65.1,59.6,53.5,96,79,54,29.86,29.60,12,2,18,1.37
2013-6-30,84.0,67.6,54.6,62.5,56.3,51.6,91,70,40,29.96,29.85,10,0,10,0.00